contact:dominique.lefevre@mio.osupytheas.fr, maurice.libes@osupytheas.fr, didier.mallarino@osupytheas.fr
Project:EMSO http://www.emso-fr.org/EMSO-France
Depth: 2436.0 m
Title:EMSO Ligure Ouest : Data MII capteur MICROCAT
DateTime_Computer,Latitude,Longitude,Temperature,Conductivity,Pressure,DateTime_Instrument
DateTime_Computer,Latitude,Longitude,degC,S m-1,dbar,DateTime_Instrument
2020-03-24T00:02:15Z,42.805,6.029,13.2992,4.59991,2469.876,2020-3-24T02:02:53Z
2020-03-24T00:05:18Z,42.805,6.029,13.2990,4.59988,2469.853,2020-3-24T02:05:56Z
2020-03-24T00:08:22Z,42.805,6.029,13.3015,4.59988,2469.853,2020-3-24T02:08:59Z
2020-03-24T00:11:25Z,42.805,6.029,13.3006,4.60015,2469.89,2020-3-24T02:12:03Z
2020-03-24T00:14:28Z,42.805,6.029,13.2998,4.59988,2469.876,2020-3-24T02:15:06Z
2020-03-24T00:17:31Z,42.805,6.029,13.3012,4.59996,2469.89,2020-3-24T02:18:09Z
2020-03-24T00:20:35Z,42.805,6.029,13.2994,4.59991,2469.867,2020-3-24T02:21:12Z
2020-03-24T00:23:38Z,42.805,6.029,13.3002,4.59999,2469.914,2020-3-24T02:24:16Z
2020-03-24T00:26:41Z,42.805,6.029,13.3004,4.60011,2469.867,2020-3-24T02:27:19Z
2020-03-24T00:29:44Z,42.805,6.029,13.3006,4.59994,2469.853,2020-3-24T02:30:22Z
2020-03-24T00:32:48Z,42.805,6.029,13.2993,4.59995,2469.867,2020-3-24T02:33:25Z
2020-03-24T00:35:51Z,42.805,6.029,13.2993,4.60001,2469.89,2020-3-24T02:36:29Z
2020-03-24T00:38:54Z,42.805,6.029,13.2996,4.59992,2469.89,2020-3-24T02:39:32Z
2020-03-24T00:41:57Z,42.805,6.029,13.2996,4.59989,2469.876,2020-3-24T02:42:35Z
2020-03-24T00:45:00Z,42.805,6.029,13.2997,4.59992,2469.844,2020-3-24T02:45:38Z
2020-03-24T00:48:04Z,42.805,6.029,13.3011,4.59990,2469.853,2020-3-24T02:48:42Z
2020-03-24T00:51:07Z,42.805,6.029,13.3022,4.59986,2469.876,2020-3-24T02:51:45Z
2020-03-24T00:54:10Z,42.805,6.029,13.2995,4.59998,2469.876,2020-3-24T02:54:48Z
2020-03-24T00:57:13Z,42.805,6.029,13.3009,4.59991,2469.867,2020-3-24T02:57:51Z
2020-03-24T01:00:17Z,42.805,6.029,13.2999,4.59991,2469.89,2020-3-24T03:00:54Z
2020-03-24T01:03:20Z,42.805,6.029,13.2993,4.60003,2469.867,2020-3-24T03:03:58Z
2020-03-24T01:06:23Z,42.805,6.029,13.3012,4.59996,2469.867,2020-3-24T03:07:01Z
2020-03-24T01:09:26Z,42.805,6.029,13.2991,4.60022,2469.867,2020-3-24T03:10:04Z
2020-03-24T01:12:30Z,42.805,6.029,13.2972,4.59994,2469.853,2020-3-24T03:13:07Z
2020-03-24T01:15:33Z,42.805,6.029,13.3004,4.60009,2469.83,2020-3-24T03:16:11Z
2020-03-24T01:18:36Z,42.805,6.029,13.3000,4.59989,2469.876,2020-3-24T03:19:14Z
2020-03-24T01:21:39Z,42.805,6.029,13.2990,4.60004,2469.867,2020-3-24T03:22:17Z
2020-03-24T01:24:43Z,42.805,6.029,13.3006,4.60005,2469.867,2020-3-24T03:25:20Z
2020-03-24T01:27:46Z,42.805,6.029,13.2991,4.59996,2469.853,2020-3-24T03:28:24Z
2020-03-24T01:30:49Z,42.805,6.029,13.3006,4.59994,2469.914,2020-3-24T03:31:27Z
2020-03-24T01:33:52Z,42.805,6.029,13.3009,4.60005,2469.853,2020-3-24T03:34:30Z
2020-03-24T01:36:56Z,42.805,6.029,13.3022,4.60006,2469.867,2020-3-24T03:37:34Z
2020-03-24T01:39:59Z,42.805,6.029,13.3006,4.59999,2469.853,2020-3-24T03:40:37Z
2020-03-24T01:43:02Z,42.805,6.029,13.3019,4.60010,2469.853,2020-3-24T03:43:40Z
2020-03-24T01:46:05Z,42.805,6.029,13.3000,4.60001,2469.867,2020-3-24T03:46:43Z
2020-03-24T01:49:09Z,42.805,6.029,13.3002,4.59996,2469.867,2020-3-24T03:49:46Z
2020-03-24T01:52:12Z,42.805,6.029,13.3002,4.60011,2469.867,2020-3-24T03:52:50Z
2020-03-24T01:55:15Z,42.805,6.029,13.3000,4.60020,2469.89,2020-3-24T03:55:53Z
2020-03-24T01:58:19Z,42.805,6.029,13.2994,4.60013,2469.867,2020-3-24T03:58:56Z
2020-03-24T02:01:22Z,42.805,6.029,13.2990,4.60003,2469.876,2020-3-24T04:02:00Z
2020-03-24T02:04:25Z,42.805,6.029,13.3014,4.60013,2469.89,2020-3-24T04:05:03Z
2020-03-24T02:07:28Z,42.805,6.029,13.3021,4.60002,2469.876,2020-3-24T04:08:06Z
2020-03-24T02:10:32Z,42.805,6.029,13.3005,4.60004,2469.844,2020-3-24T04:11:10Z
2020-03-24T02:13:35Z,42.805,6.029,13.3003,4.59992,2469.876,2020-3-24T04:14:13Z
2020-03-24T02:16:38Z,42.805,6.029,13.2998,4.60001,2469.863,2020-3-24T04:17:16Z
2020-03-24T02:19:41Z,42.805,6.029,13.3018,4.60003,2469.853,2020-3-24T04:20:19Z
2020-03-24T02:22:45Z,42.805,6.029,13.3006,4.60016,2469.867,2020-3-24T04:23:22Z
2020-03-24T02:25:48Z,42.805,6.029,13.2993,4.60050,2469.853,2020-3-24T04:26:26Z
2020-03-24T02:28:51Z,42.805,6.029,13.2999,4.60000,2469.914,2020-3-24T04:29:29Z
2020-03-24T02:31:55Z,42.805,6.029,13.3000,4.60004,2469.867,2020-3-24T04:32:32Z
2020-03-24T02:34:58Z,42.805,6.029,13.2993,4.60011,2469.89,2020-3-24T04:35:36Z
2020-03-24T02:38:01Z,42.805,6.029,13.3011,4.60006,2469.853,2020-3-24T04:38:39Z
2020-03-24T02:41:04Z,42.805,6.029,13.2996,4.60000,2469.89,2020-3-24T04:41:42Z
2020-03-24T02:44:07Z,42.805,6.029,13.3000,4.60004,2469.876,2020-3-24T04:44:45Z
2020-03-24T02:47:11Z,42.805,6.029,13.3006,4.60011,2469.876,2020-3-24T04:47:48Z
2020-03-24T02:50:14Z,42.805,6.029,13.2997,4.59995,2469.853,2020-3-24T04:50:52Z
2020-03-24T02:53:17Z,42.805,6.029,13.2998,4.59996,2469.867,2020-3-24T04:53:55Z
2020-03-24T02:56:21Z,42.805,6.029,13.2993,4.59992,2469.89,2020-3-24T04:56:58Z
2020-03-24T02:59:24Z,42.805,6.029,13.3013,4.60003,2469.923,2020-3-24T05:00:02Z
2020-03-24T03:02:27Z,42.805,6.029,13.2993,4.59997,2469.876,2020-3-24T05:03:05Z
2020-03-24T03:05:30Z,42.805,6.029,13.3009,4.60095,2469.89,2020-3-24T05:06:08Z
2020-03-24T03:08:33Z,42.805,6.029,13.2989,4.60003,2469.9,2020-3-24T05:09:11Z
2020-03-24T03:11:37Z,42.805,6.029,13.2991,4.60004,2469.9,2020-3-24T05:12:15Z
2020-03-24T03:14:40Z,42.805,6.029,13.3004,4.59996,2469.914,2020-3-24T05:15:18Z
2020-03-24T03:17:43Z,42.805,6.029,13.2980,4.60007,2469.876,2020-3-24T05:18:21Z
2020-03-24T03:20:47Z,42.805,6.029,13.3004,4.59996,2469.937,2020-3-24T05:21:25Z
2020-03-24T03:23:50Z,42.805,6.029,13.2982,4.59993,2469.9,2020-3-24T05:24:28Z
2020-03-24T03:26:53Z,42.805,6.029,13.3000,4.60016,2469.89,2020-3-24T05:27:31Z
2020-03-24T03:29:56Z,42.805,6.029,13.2997,4.60003,2469.89,2020-3-24T05:30:34Z
2020-03-24T03:33:00Z,42.805,6.029,13.2982,4.59996,2469.923,2020-3-24T05:33:38Z
2020-03-24T03:36:03Z,42.805,6.029,13.3004,4.60008,2469.9,2020-3-24T05:36:41Z
2020-03-24T03:39:06Z,42.805,6.029,13.2994,4.60016,2469.914,2020-3-24T05:39:44Z
2020-03-24T03:42:10Z,42.805,6.029,13.2990,4.60003,2469.923,2020-3-24T05:42:48Z
2020-03-24T03:45:13Z,42.805,6.029,13.2988,4.59992,2469.876,2020-3-24T05:45:51Z
2020-03-24T03:48:16Z,42.805,6.029,13.2995,4.60001,2469.923,2020-3-24T05:48:54Z
2020-03-24T03:51:19Z,42.805,6.029,13.3021,4.60009,2469.9,2020-3-24T05:51:57Z
2020-03-24T03:54:23Z,42.805,6.029,13.3012,4.60007,2469.937,2020-3-24T05:55:00Z
2020-03-24T03:57:26Z,42.805,6.029,13.2971,4.60010,2469.937,2020-3-24T05:58:04Z
2020-03-24T04:00:29Z,42.805,6.029,13.2973,4.60019,2469.937,2020-3-24T06:01:07Z
2020-03-24T04:03:32Z,42.805,6.029,13.2996,4.60021,2469.937,2020-3-24T06:04:10Z
2020-03-24T04:06:36Z,42.805,6.029,13.2993,4.60006,2469.937,2020-3-24T06:07:13Z
2020-03-24T04:09:39Z,42.805,6.029,13.2986,4.59997,2469.937,2020-3-24T06:10:17Z
2020-03-24T04:12:42Z,42.805,6.029,13.2997,4.60019,2469.947,2020-3-24T06:13:20Z
2020-03-24T04:15:45Z,42.805,6.029,13.3010,4.60002,2469.914,2020-3-24T06:16:23Z
2020-03-24T04:18:49Z,42.805,6.029,13.2997,4.60006,2469.923,2020-3-24T06:19:26Z
2020-03-24T04:21:52Z,42.805,6.029,13.3009,4.60033,2469.947,2020-3-24T06:22:30Z
2020-03-24T04:24:55Z,42.805,6.029,13.3006,4.60015,2469.96,2020-3-24T06:25:33Z
2020-03-24T04:27:58Z,42.805,6.029,13.2984,4.60003,2469.96,2020-3-24T06:28:36Z
2020-03-24T04:31:02Z,42.805,6.029,13.2998,4.60002,2469.947,2020-3-24T06:31:40Z
2020-03-24T04:34:05Z,42.805,6.029,13.2970,4.60014,2469.984,2020-3-24T06:34:43Z
2020-03-24T04:37:08Z,42.805,6.029,13.2985,4.59999,2469.984,2020-3-24T06:37:46Z
2020-03-24T04:40:11Z,42.805,6.029,13.3004,4.60014,2469.984,2020-3-24T06:40:49Z
2020-03-24T04:43:15Z,42.805,6.029,13.3057,4.60009,2469.984,2020-3-24T06:43:52Z
2020-03-24T04:46:18Z,42.805,6.029,13.2968,4.59999,2470.007,2020-3-24T06:46:56Z
2020-03-24T04:49:21Z,42.805,6.029,13.3019,4.60002,2469.984,2020-3-24T06:49:59Z
2020-03-24T04:52:24Z,42.805,6.029,13.2976,4.60006,2469.97,2020-3-24T06:53:02Z
2020-03-24T04:55:28Z,42.805,6.029,13.2991,4.60040,2469.984,2020-3-24T06:56:05Z
2020-03-24T04:58:31Z,42.805,6.029,13.3040,4.60008,2470.03,2020-3-24T06:59:09Z
2020-03-24T05:01:34Z,42.805,6.029,13.3025,4.60031,2470.007,2020-3-24T07:02:12Z
2020-03-24T05:04:37Z,42.805,6.029,13.2981,4.60010,2470.007,2020-3-24T07:05:15Z
2020-03-24T05:07:40Z,42.805,6.029,13.3020,4.59996,2470.007,2020-3-24T07:08:18Z
2020-03-24T05:10:44Z,42.805,6.029,13.3009,4.60021,2470.017,2020-3-24T07:11:22Z
2020-03-24T05:13:47Z,42.805,6.029,13.2996,4.60011,2470.017,2020-3-24T07:14:25Z
2020-03-24T05:16:50Z,42.805,6.029,13.2977,4.60018,2470.03,2020-3-24T07:17:28Z
2020-03-24T05:19:53Z,42.805,6.029,13.2977,4.60009,2470.017,2020-3-24T07:20:31Z
2020-03-24T05:22:57Z,42.805,6.029,13.2968,4.60010,2470.053,2020-3-24T07:23:35Z
2020-03-24T05:26:00Z,42.805,6.029,13.2968,4.60003,2470.053,2020-3-24T07:26:38Z
2020-03-24T05:29:03Z,42.805,6.029,13.2968,4.59995,2470.03,2020-3-24T07:29:41Z
2020-03-24T05:32:06Z,42.805,6.029,13.2990,4.59988,2470.04,2020-3-24T07:32:44Z
2020-03-24T05:35:10Z,42.805,6.029,13.3014,4.60028,2470.053,2020-3-24T07:35:48Z
2020-03-24T05:38:13Z,42.805,6.029,13.2988,4.60010,2470.03,2020-3-24T07:38:51Z
2020-03-24T05:41:16Z,42.805,6.029,13.2992,4.60002,2470.04,2020-3-24T07:41:54Z
2020-03-24T05:44:20Z,42.805,6.029,13.2988,4.60019,2470.017,2020-3-24T07:44:57Z
2020-03-24T05:47:23Z,42.805,6.029,13.3009,4.60027,2470.017,2020-3-24T07:48:01Z
2020-03-24T05:50:26Z,42.805,6.029,13.3001,4.60015,2470.04,2020-3-24T07:51:04Z
2020-03-24T05:53:29Z,42.805,6.029,13.2972,4.60018,2470.053,2020-3-24T07:54:07Z
2020-03-24T05:56:32Z,42.805,6.029,13.2979,4.59996,2470.053,2020-3-24T07:57:10Z
2020-03-24T05:59:36Z,42.805,6.029,13.2973,4.60003,2470.063,2020-3-24T08:00:13Z
2020-03-24T06:02:39Z,42.805,6.029,13.2976,4.59991,2470.063,2020-3-24T08:03:17Z
2020-03-24T06:05:42Z,42.805,6.029,13.2974,4.59996,2470.077,2020-3-24T08:06:20Z
2020-03-24T06:08:45Z,42.805,6.029,13.2977,4.59989,2470.063,2020-3-24T08:09:23Z
2020-03-24T06:11:49Z,42.805,6.029,13.2967,4.60001,2470.04,2020-3-24T08:12:26Z
2020-03-24T06:14:52Z,42.805,6.029,13.2966,4.59989,2470.063,2020-3-24T08:15:30Z
2020-03-24T06:17:55Z,42.805,6.029,13.2971,4.59991,2470.077,2020-3-24T08:18:33Z
2020-03-24T06:20:58Z,42.805,6.029,13.2979,4.59996,2470.063,2020-3-24T08:21:36Z
2020-03-24T06:24:02Z,42.805,6.029,13.2979,4.60009,2470.063,2020-3-24T08:24:39Z
2020-03-24T06:27:05Z,42.805,6.029,13.3003,4.60025,2470.077,2020-3-24T08:27:43Z
2020-03-24T06:30:08Z,42.805,6.029,13.2998,4.60019,2470.077,2020-3-24T08:30:46Z
2020-03-24T06:33:11Z,42.805,6.029,13.2967,4.60019,2470.053,2020-3-24T08:33:49Z
2020-03-24T06:36:14Z,42.805,6.029,13.2969,4.59997,2470.1,2020-3-24T08:36:52Z
2020-03-24T06:39:18Z,42.805,6.029,13.3041,4.60041,2470.063,2020-3-24T08:39:56Z
2020-03-24T06:42:21Z,42.805,6.029,13.2968,4.60011,2470.087,2020-3-24T08:42:59Z
2020-03-24T06:45:24Z,42.805,6.029,13.2973,4.59999,2470.063,2020-3-24T08:46:02Z
2020-03-24T06:48:28Z,42.805,6.029,13.3039,4.60025,2470.087,2020-3-24T08:49:05Z
2020-03-24T06:51:31Z,42.805,6.029,13.3021,4.60022,2470.087,2020-3-24T08:52:09Z
2020-03-24T06:54:34Z,42.805,6.029,13.2972,4.60009,2470.087,2020-3-24T08:55:12Z
2020-03-24T06:57:37Z,42.805,6.029,13.3006,4.60009,2470.087,2020-3-24T08:58:15Z
2020-03-24T07:00:41Z,42.805,6.029,13.3048,4.60040,2470.087,2020-3-24T09:01:18Z
2020-03-24T07:03:44Z,42.805,6.029,13.3030,4.60023,2470.124,2020-3-24T09:04:22Z
2020-03-24T07:06:47Z,42.805,6.029,13.3004,4.60019,2470.087,2020-3-24T09:07:25Z
2020-03-24T07:09:50Z,42.805,6.029,13.3015,4.60019,2470.11,2020-3-24T09:10:28Z
2020-03-24T07:12:54Z,42.805,6.029,13.3022,4.60016,2470.063,2020-3-24T09:13:31Z
2020-03-24T07:15:57Z,42.805,6.029,13.3009,4.59996,2470.063,2020-3-24T09:16:35Z
2020-03-24T07:19:00Z,42.805,6.029,13.3021,4.60015,2470.077,2020-3-24T09:19:38Z
2020-03-24T07:22:04Z,42.805,6.029,13.3003,4.60010,2470.087,2020-3-24T09:22:41Z
2020-03-24T07:25:07Z,42.805,6.029,13.3017,4.60015,2470.087,2020-3-24T09:25:45Z
2020-03-24T07:28:10Z,42.805,6.029,13.2986,4.60014,2470.124,2020-3-24T09:28:48Z
2020-03-24T07:31:13Z,42.805,6.029,13.2973,4.60015,2470.053,2020-3-24T09:31:51Z
2020-03-24T07:34:17Z,42.805,6.029,13.3007,4.60009,2470.1,2020-3-24T09:34:54Z
2020-03-24T07:37:20Z,42.805,6.029,13.3011,4.59999,2470.1,2020-3-24T09:37:58Z
2020-03-24T07:40:23Z,42.805,6.029,13.3013,4.59999,2470.063,2020-3-24T09:41:01Z
2020-03-24T07:43:26Z,42.805,6.029,13.2971,4.60004,2470.124,2020-3-24T09:44:04Z
2020-03-24T07:46:30Z,42.805,6.029,13.3022,4.60007,2470.1,2020-3-24T09:47:07Z
2020-03-24T07:49:33Z,42.805,6.029,13.3036,4.60016,2470.124,2020-3-24T09:50:11Z
2020-03-24T07:52:36Z,42.805,6.029,13.3004,4.60009,2470.063,2020-3-24T09:53:14Z
2020-03-24T07:55:39Z,42.805,6.029,13.3002,4.60035,2470.087,2020-3-24T09:56:17Z
2020-03-24T07:58:43Z,42.805,6.029,13.3000,4.59999,2470.11,2020-3-24T09:59:20Z
2020-03-24T08:01:46Z,42.805,6.029,13.2992,4.60012,2470.087,2020-3-24T10:02:24Z
2020-03-24T08:04:49Z,42.805,6.029,13.2978,4.60013,2470.091,2020-3-24T10:05:27Z
2020-03-24T08:07:52Z,42.805,6.029,13.2987,4.60011,2470.1,2020-3-24T10:08:30Z
2020-03-24T08:10:56Z,42.805,6.029,13.3013,4.60001,2470.063,2020-3-24T10:11:33Z
2020-03-24T08:13:59Z,42.805,6.029,13.3005,4.60031,2470.087,2020-3-24T10:14:37Z
2020-03-24T08:17:02Z,42.805,6.029,13.2998,4.60014,2470.087,2020-3-24T10:17:40Z
2020-03-24T08:20:05Z,42.805,6.029,13.3013,4.60019,2470.077,2020-3-24T10:20:43Z
2020-03-24T08:23:09Z,42.805,6.029,13.2991,4.60014,2470.087,2020-3-24T10:23:46Z
2020-03-24T08:26:12Z,42.805,6.029,13.2986,4.60010,2470.124,2020-3-24T10:26:50Z
2020-03-24T08:29:15Z,42.805,6.029,13.2997,4.60014,2470.1,2020-3-24T10:29:53Z
2020-03-24T08:32:19Z,42.805,6.029,13.2996,4.60000,2470.077,2020-3-24T10:32:57Z
2020-03-24T08:35:22Z,42.805,6.029,13.3011,4.59998,2470.124,2020-3-24T10:36:00Z
2020-03-24T08:38:25Z,42.805,6.029,13.3003,4.59997,2470.077,2020-3-24T10:39:03Z
2020-03-24T08:41:28Z,42.805,6.029,13.2993,4.59991,2470.1,2020-3-24T10:42:06Z
2020-03-24T08:44:32Z,42.805,6.029,13.3005,4.60005,2470.063,2020-3-24T10:45:09Z
2020-03-24T08:47:35Z,42.805,6.029,13.2991,4.59999,2470.04,2020-3-24T10:48:13Z
2020-03-24T08:50:38Z,42.805,6.029,13.3004,4.60001,2470.077,2020-3-24T10:51:16Z
2020-03-24T08:53:41Z,42.805,6.029,13.2997,4.60006,2470.1,2020-3-24T10:54:19Z
2020-03-24T08:56:45Z,42.805,6.029,13.3008,4.60001,2470.053,2020-3-24T10:57:22Z
2020-03-24T08:59:48Z,42.805,6.029,13.3000,4.59989,2470.063,2020-3-24T11:00:26Z
2020-03-24T09:02:51Z,42.805,6.029,13.3011,4.59993,2470.077,2020-3-24T11:03:29Z
2020-03-24T09:05:54Z,42.805,6.029,13.3002,4.60002,2470.077,2020-3-24T11:06:32Z
2020-03-24T09:08:57Z,42.805,6.029,13.3001,4.59993,2470.087,2020-3-24T11:09:35Z
2020-03-24T09:12:01Z,42.805,6.029,13.3004,4.59995,2470.1,2020-3-24T11:12:39Z
2020-03-24T09:15:04Z,42.805,6.029,13.2998,4.60003,2470.04,2020-3-24T11:15:42Z
2020-03-24T09:18:07Z,42.805,6.029,13.2994,4.60019,2470.087,2020-3-24T11:18:45Z
2020-03-24T09:21:10Z,42.805,6.029,13.2995,4.60000,2470.077,2020-3-24T11:21:48Z
2020-03-24T09:24:14Z,42.805,6.029,13.2986,4.59986,2470.063,2020-3-24T11:24:52Z
2020-03-24T09:27:17Z,42.805,6.029,13.2996,4.60008,2470.053,2020-3-24T11:27:55Z
2020-03-24T09:30:20Z,42.805,6.029,13.2994,4.60035,2470.053,2020-3-24T11:30:58Z
2020-03-24T09:33:23Z,42.805,6.029,13.2996,4.59992,2470.017,2020-3-24T11:34:01Z
2020-03-24T09:36:27Z,42.805,6.029,13.3001,4.59989,2470.063,2020-3-24T11:37:05Z
2020-03-24T09:39:30Z,42.805,6.029,13.2993,4.59996,2470.053,2020-3-24T11:40:08Z
2020-03-24T09:42:33Z,42.805,6.029,13.2997,4.59997,2470.04,2020-3-24T11:43:11Z
2020-03-24T09:45:36Z,42.805,6.029,13.2999,4.59994,2470.077,2020-3-24T11:46:14Z
2020-03-24T09:48:40Z,42.805,6.029,13.3004,4.59996,2470.053,2020-3-24T11:49:18Z
2020-03-24T09:51:43Z,42.805,6.029,13.3002,4.59992,2470.053,2020-3-24T11:52:21Z
2020-03-24T09:54:46Z,42.805,6.029,13.2993,4.60006,2470.03,2020-3-24T11:55:24Z
2020-03-24T09:57:50Z,42.805,6.029,13.2998,4.59991,2470.063,2020-3-24T11:58:27Z
2020-03-24T10:00:53Z,42.805,6.029,13.2993,4.59994,2470.03,2020-3-24T12:01:31Z
2020-03-24T10:03:56Z,42.805,6.029,13.2993,4.59993,2470.077,2020-3-24T12:04:34Z
2020-03-24T10:06:59Z,42.805,6.029,13.2990,4.60000,2469.993,2020-3-24T12:07:37Z
2020-03-24T10:10:03Z,42.805,6.029,13.2989,4.59993,2470.03,2020-3-24T12:10:40Z
2020-03-24T10:13:06Z,42.805,6.029,13.2991,4.60009,2470.007,2020-3-24T12:13:44Z
2020-03-24T10:16:09Z,42.805,6.029,13.2992,4.59988,2470.053,2020-3-24T12:16:47Z
2020-03-24T10:19:12Z,42.805,6.029,13.2991,4.59988,2470.017,2020-3-24T12:19:50Z
2020-03-24T10:22:15Z,42.805,6.029,13.2997,4.59991,2470.007,2020-3-24T12:22:53Z
2020-03-24T10:25:19Z,42.805,6.029,13.2990,4.60000,2469.97,2020-3-24T12:25:57Z
2020-03-24T10:28:22Z,42.805,6.029,13.2986,4.60016,2470.017,2020-3-24T12:29:00Z
2020-03-24T10:31:25Z,42.805,6.029,13.2991,4.60006,2469.97,2020-3-24T12:32:03Z
2020-03-24T10:34:29Z,42.805,6.029,13.2996,4.59996,2469.979,2020-3-24T12:35:06Z
2020-03-24T10:37:32Z,42.805,6.029,13.2996,4.59991,2469.993,2020-3-24T12:38:10Z
2020-03-24T10:40:35Z,42.805,6.029,13.2994,4.59993,2469.993,2020-3-24T12:41:13Z
2020-03-24T10:43:38Z,42.805,6.029,13.2995,4.60000,2469.993,2020-3-24T12:44:16Z
2020-03-24T10:46:42Z,42.805,6.029,13.2996,4.59999,2469.97,2020-3-24T12:47:19Z
2020-03-24T10:49:45Z,42.805,6.029,13.2995,4.59992,2469.97,2020-3-24T12:50:23Z
2020-03-24T10:52:48Z,42.805,6.029,13.3000,4.59996,2470.007,2020-3-24T12:53:26Z
2020-03-24T10:55:51Z,42.805,6.029,13.2997,4.59996,2469.984,2020-3-24T12:56:29Z
2020-03-24T10:58:55Z,42.805,6.029,13.2990,4.60019,2469.97,2020-3-24T12:59:32Z
2020-03-24T11:01:58Z,42.805,6.029,13.2998,4.59991,2470.007,2020-3-24T13:02:36Z
2020-03-24T11:05:01Z,42.805,6.029,13.2995,4.59991,2469.993,2020-3-24T13:05:39Z
2020-03-24T11:08:04Z,42.805,6.029,13.3006,4.59987,2469.97,2020-3-24T13:08:42Z
2020-03-24T11:11:07Z,42.805,6.029,13.2998,4.59990,2469.993,2020-3-24T13:11:45Z
2020-03-24T11:14:11Z,42.805,6.029,13.2993,4.59999,2469.947,2020-3-24T13:14:49Z
2020-03-24T11:17:14Z,42.805,6.029,13.3005,4.59991,2470.007,2020-3-24T13:17:52Z
2020-03-24T11:20:17Z,42.805,6.029,13.2998,4.59989,2469.984,2020-3-24T13:20:55Z
2020-03-24T11:23:20Z,42.805,6.029,13.2998,4.59992,2469.947,2020-3-24T13:23:58Z
2020-03-24T11:26:24Z,42.805,6.029,13.3011,4.60000,2469.97,2020-3-24T13:27:02Z
2020-03-24T11:29:27Z,42.805,6.029,13.3003,4.59990,2469.96,2020-3-24T13:30:05Z
2020-03-24T11:32:30Z,42.805,6.029,13.2990,4.59991,2469.923,2020-3-24T13:33:08Z
2020-03-24T11:35:33Z,42.805,6.029,13.2999,4.59990,2469.96,2020-3-24T13:36:11Z
2020-03-24T11:38:37Z,42.805,6.029,13.2993,4.59990,2469.984,2020-3-24T13:39:15Z
2020-03-24T11:41:40Z,42.805,6.029,13.2992,4.59993,2469.947,2020-3-24T13:42:18Z
2020-03-24T11:44:43Z,42.805,6.029,13.2992,4.59996,2469.97,2020-3-24T13:45:21Z
2020-03-24T11:47:47Z,42.805,6.029,13.2996,4.59993,2469.937,2020-3-24T13:48:24Z
2020-03-24T11:50:50Z,42.805,6.029,13.3001,4.60002,2469.984,2020-3-24T13:51:28Z
2020-03-24T11:53:53Z,42.805,6.029,13.3000,4.59990,2469.96,2020-3-24T13:54:31Z
2020-03-24T11:56:56Z,42.805,6.029,13.2998,4.59991,2469.947,2020-3-24T13:57:34Z
2020-03-24T11:59:59Z,42.805,6.029,13.2992,4.59993,2469.96,2020-3-24T14:00:37Z
2020-03-24T12:03:03Z,42.805,6.029,13.3002,4.59992,2469.97,2020-3-24T14:03:41Z
2020-03-24T12:06:06Z,42.805,6.029,13.3000,4.59987,2469.947,2020-3-24T14:06:44Z
2020-03-24T12:09:09Z,42.805,6.029,13.2996,4.60003,2469.923,2020-3-24T14:09:47Z
2020-03-24T12:12:13Z,42.805,6.029,13.2986,4.60000,2469.923,2020-3-24T14:12:51Z
2020-03-24T12:15:16Z,42.805,6.029,13.2986,4.59991,2469.947,2020-3-24T14:15:54Z
2020-03-24T12:18:19Z,42.805,6.029,13.2997,4.59996,2469.947,2020-3-24T14:18:57Z
2020-03-24T12:21:23Z,42.805,6.029,13.2991,4.59986,2469.96,2020-3-24T14:22:00Z
2020-03-24T12:24:26Z,42.805,6.029,13.2991,4.59994,2469.96,2020-3-24T14:25:04Z
2020-03-24T12:27:29Z,42.805,6.029,13.2989,4.59991,2469.937,2020-3-24T14:28:07Z
2020-03-24T12:30:32Z,42.805,6.029,13.2994,4.60001,2469.96,2020-3-24T14:31:10Z
2020-03-24T12:33:36Z,42.805,6.029,13.2984,4.59993,2469.9,2020-3-24T14:34:13Z
2020-03-24T12:36:39Z,42.805,6.029,13.3000,4.60003,2469.96,2020-3-24T14:37:17Z
2020-03-24T12:39:42Z,42.805,6.029,13.2987,4.60005,2469.914,2020-3-24T14:40:20Z
2020-03-24T12:42:45Z,42.805,6.029,13.2996,4.60022,2469.9,2020-3-24T14:43:23Z
2020-03-24T12:45:48Z,42.805,6.029,13.3006,4.60003,2469.923,2020-3-24T14:46:26Z
2020-03-24T12:48:52Z,42.805,6.029,13.2990,4.59989,2469.937,2020-3-24T14:49:30Z
2020-03-24T12:51:55Z,42.805,6.029,13.3008,4.60024,2469.914,2020-3-24T14:52:33Z
2020-03-24T12:54:59Z,42.805,6.029,13.3008,4.59997,2469.923,2020-3-24T14:55:37Z
2020-03-24T12:58:02Z,42.805,6.029,13.3000,4.60009,2469.914,2020-3-24T14:58:40Z
2020-03-24T13:01:05Z,42.805,6.029,13.3001,4.59996,2469.923,2020-3-24T15:01:43Z
2020-03-24T13:04:08Z,42.805,6.029,13.2998,4.59988,2469.914,2020-3-24T15:04:46Z
2020-03-24T13:07:12Z,42.805,6.029,13.2989,4.59994,2469.923,2020-3-24T15:07:49Z
2020-03-24T13:10:15Z,42.805,6.029,13.2979,4.59999,2469.9,2020-3-24T15:10:53Z
2020-03-24T13:13:18Z,42.805,6.029,13.2992,4.60019,2469.9,2020-3-24T15:13:56Z
2020-03-24T13:16:21Z,42.805,6.029,13.2985,4.60001,2469.914,2020-3-24T15:16:59Z
2020-03-24T13:19:25Z,42.805,6.029,13.3012,4.59991,2469.876,2020-3-24T15:20:03Z
2020-03-24T13:22:28Z,42.805,6.029,13.2998,4.59995,2469.947,2020-3-24T15:23:06Z
2020-03-24T13:25:31Z,42.805,6.029,13.2993,4.59991,2469.914,2020-3-24T15:26:09Z
2020-03-24T13:28:34Z,42.805,6.029,13.2991,4.60001,2469.914,2020-3-24T15:29:12Z
2020-03-24T13:31:38Z,42.805,6.029,13.2979,4.59993,2469.876,2020-3-24T15:32:16Z
2020-03-24T13:34:41Z,42.805,6.029,13.2988,4.59998,2469.9,2020-3-24T15:35:19Z
2020-03-24T13:37:44Z,42.805,6.029,13.2990,4.59986,2469.9,2020-3-24T15:38:22Z
2020-03-24T13:40:47Z,42.805,6.029,13.2986,4.59986,2469.876,2020-3-24T15:41:25Z
2020-03-24T13:43:51Z,42.805,6.029,13.2987,4.59991,2469.89,2020-3-24T15:44:29Z
2020-03-24T13:46:54Z,42.805,6.029,13.3016,4.59991,2469.89,2020-3-24T15:47:32Z
2020-03-24T13:49:57Z,42.805,6.029,13.2990,4.60014,2469.9,2020-3-24T15:50:35Z
2020-03-24T13:53:00Z,42.805,6.029,13.2991,4.59994,2469.9,2020-3-24T15:53:38Z
2020-03-24T13:56:04Z,42.805,6.029,13.2977,4.59988,2469.89,2020-3-24T15:56:42Z
2020-03-24T13:59:07Z,42.805,6.029,13.2987,4.59999,2469.876,2020-3-24T15:59:45Z
2020-03-24T14:02:10Z,42.805,6.029,13.2994,4.60001,2469.853,2020-3-24T16:02:48Z
2020-03-24T14:05:13Z,42.805,6.029,13.3010,4.60005,2469.89,2020-3-24T16:05:51Z
2020-03-24T14:08:17Z,42.805,6.029,13.2986,4.60009,2469.914,2020-3-24T16:08:55Z
2020-03-24T14:11:20Z,42.805,6.029,13.2982,4.60015,2469.876,2020-3-24T16:11:58Z
2020-03-24T14:14:23Z,42.805,6.029,13.2994,4.60011,2469.876,2020-3-24T16:15:01Z
2020-03-24T14:17:26Z,42.805,6.029,13.2983,4.60001,2469.876,2020-3-24T16:18:04Z
2020-03-24T14:20:30Z,42.805,6.029,13.2979,4.59996,2469.863,2020-3-24T16:21:08Z
2020-03-24T14:23:33Z,42.805,6.029,13.2983,4.59997,2469.876,2020-3-24T16:24:11Z
2020-03-24T14:26:36Z,42.805,6.029,13.2987,4.60015,2469.876,2020-3-24T16:27:14Z
2020-03-24T14:29:40Z,42.805,6.029,13.3000,4.59998,2469.89,2020-3-24T16:30:17Z
2020-03-24T14:32:43Z,42.805,6.029,13.2996,4.60000,2469.89,2020-3-24T16:33:21Z
2020-03-24T14:35:46Z,42.805,6.029,13.2980,4.60003,2469.876,2020-3-24T16:36:24Z
2020-03-24T14:38:49Z,42.805,6.029,13.2979,4.60001,2469.89,2020-3-24T16:39:27Z
2020-03-24T14:41:53Z,42.805,6.029,13.2982,4.59998,2469.876,2020-3-24T16:42:31Z
2020-03-24T14:44:56Z,42.805,6.029,13.2990,4.59999,2469.839,2020-3-24T16:45:34Z
2020-03-24T14:47:59Z,42.805,6.029,13.2997,4.60013,2469.853,2020-3-24T16:48:37Z
2020-03-24T14:51:03Z,42.805,6.029,13.2972,4.59996,2469.9,2020-3-24T16:51:40Z
2020-03-24T14:54:06Z,42.805,6.029,13.2976,4.59996,2469.923,2020-3-24T16:54:44Z
2020-03-24T14:57:09Z,42.805,6.029,13.2999,4.60008,2469.89,2020-3-24T16:57:47Z
2020-03-24T15:00:12Z,42.805,6.029,13.2991,4.60013,2469.89,2020-3-24T17:00:50Z
2020-03-24T15:03:16Z,42.805,6.029,13.2982,4.59994,2469.89,2020-3-24T17:03:53Z
2020-03-24T15:06:19Z,42.805,6.029,13.2981,4.59996,2469.9,2020-3-24T17:06:57Z
2020-03-24T15:09:22Z,42.805,6.029,13.2986,4.59994,2469.876,2020-3-24T17:10:00Z
2020-03-24T15:12:25Z,42.805,6.029,13.2981,4.60004,2469.867,2020-3-24T17:13:03Z
2020-03-24T15:15:28Z,42.805,6.029,13.2968,4.59995,2469.9,2020-3-24T17:16:06Z